FW0864 Weather Reports


Display with metric or nautical units.
time (UTC)temp
F
wind
direction
speed
MPH
gust
MPH
rain 1hr
in
rain 24hr
in
rain mn
in
humidity
%
barometer
mb
20260508111047 59 321 4.0 8.0 0.00 0.00 0.00 80 1012.5
20260508110546 59 247 3.0 6.0 0.00 0.00 0.00 79 1012.5
20260508110045 59 261 3.0 8.0 0.00 0.00 0.00 79 1012.5
20260508105546 59 324 3.0 8.0 0.00 0.00 0.00 79 1012.5
20260508105045 59 312 3.0 7.0 0.00 0.00 0.00 78 1012.5
20260508104553 60 326 2.0 8.0 0.00 0.00 0.00 78 1012.5
20260508104043 60 260 2.0 8.0 0.00 0.00 0.00 78 1012.6
20260508103542 60 326 3.0 6.0 0.00 0.00 0.00 77 1012.5
20260508103042 60 316 2.0 9.0 0.00 0.00 0.00 77 1012.5
20260508102540 60 303 4.0 9.0 0.00 0.00 0.00 77 1012.5
20260508102039 60 302 2.0 9.0 0.00 0.00 0.00 76 1012.5
20260508101541 60 277 2.0 6.0 0.00 0.00 0.00 76 1012.4
20260508101037 61 337 3.0 7.0 0.00 0.00 0.00 75 1012.4
20260508100535 61 273 2.0 7.0 0.00 0.00 0.00 75 1012.4
20260508100038 61 305 3.0 7.0 0.00 0.00 0.00 75 1012.4
20260508095535 61 310 2.0 8.0 0.00 0.00 0.00 74 1012.4
20260508095033 61 337 3.0 8.0 0.00 0.00 0.00 74 1012.3
20260508094533 61 318 3.0 8.0 0.00 0.00 0.00 74 1012.4
20260508094031 62 301 3.0 7.0 0.00 0.00 0.00 73 1012.4
20260508093531 62 316 3.0 5.0 0.00 0.00 0.00 73 1012.4
20260508093030 62 326 3.0 8.0 0.00 0.00 0.00 73 1012.4
20260508092532 62 304 2.0 7.0 0.00 0.00 0.00 73 1012.4
20260508092029 62 328 2.0 6.0 0.00 0.00 0.00 72 1012.4
20260508091529 62 276 2.0 5.0 0.00 0.00 0.00 72 1012.4
20260508091027 62 300 2.0 6.0 0.00 0.00 0.00 72 1012.4
20260508090527 63 333 2.0 4.0 0.00 0.00 0.00 72 1012.4
20260508090033 63 349 2.0 6.0 0.00 0.00 0.00 71 1012.3
20260508085525 63 320 3.0 6.0 0.00 0.00 0.00 71 1012.3
20260508085024 63 288 2.0 5.0 0.00 0.00 0.00 71 1012.3
20260508084524 63 320 2.0 6.0 0.00 0.00 0.00 71 1012.4
20260508084024 63 276 3.0 6.0 0.00 0.00 0.00 71 1012.3
20260508083522 64 318 3.0 7.0 0.00 0.00 0.00 71 1012.3
20260508083022 64 315 2.0 7.0 0.00 0.00 0.00 71 1012.4
20260508082525 64 332 2.0 5.0 0.00 0.00 0.00 71 1012.3
20260508082021 64 343 2.0 6.0 0.00 0.00 0.00 71 1012.4
20260508081520 64 272 1.0 8.0 0.00 0.00 0.00 71 1012.3
20260508081022 64 327 2.0 8.0 0.00 0.00 0.00 72 1012.3
20260508080519 64 324 3.0 8.0 0.00 0.00 0.00 72 1012.3
20260508080018 65 332 4.0 12.0 0.00 0.00 0.00 72 1012.2
20260508075517 65 326 4.0 12.0 0.00 0.00 0.00 72 1012.2
20260508075016 65 345 2.0 5.0 0.00 0.00 0.00 72 1012.1
20260508074518 65 320 2.0 9.0 0.00 0.00 0.00 72 1012.1
20260508074015 65 359 3.0 8.0 0.00 0.00 0.00 72 1012.1
20260508073516 65 349 3.0 8.0 0.00 0.00 0.00 72 1012.2
20260508073016 66 327 3.0 8.0 0.00 0.00 0.00 72 1012.2
20260508072513 66 4 3.0 8.0 0.00 0.00 0.00 72 1012.2
20260508072013 66 327 3.0 8.0 0.00 0.00 0.00 72 1012.1
20260508071512 66 327 3.0 10.0 0.00 0.00 0.00 72 1012.1
20260508071010 66 325 4.0 10.0 0.00 0.00 0.00 72 1012.1
20260508070516 67 323 2.0 9.0 0.00 0.00 0.00 72 1012.1
20260508070010 67 331 3.0 9.0 0.00 0.00 0.00 72 1012.1
20260508065509 67 330 2.0 8.0 0.00 0.00 0.00 72 1012.0
20260508065009 67 332 3.0 8.0 0.00 0.00 0.00 71 1012.0
20260508064537 68 341 3.0 10.0 0.00 0.00 0.00 70 1012.0
20260508064010 68 333 4.0 10.0 0.00 0.00 0.00 70 1012.0
20260508063510 68 335 4.0 8.0 0.00 0.00 0.00 69 1012.0
20260508063015 68 27 2.0 10.0 0.00 0.00 0.00 68 1011.9
20260508062511 69 354 5.0 10.0 0.00 0.00 0.00 67 1012.0
20260508062009 69 326 3.0 9.0 0.00 0.00 0.00 66 1012.0
20260508061509 69 335 3.0 9.0 0.00 0.00 0.00 65 1012.0
20260508061011 70 337 3.0 9.0 0.00 0.00 0.00 64 1011.9
20260508060509 70 314 3.0 9.0 0.00 0.00 0.00 63 1011.9
20260508060008 70 335 4.0 8.0 0.00 0.00 0.00 63 1011.9
20260508055508 70 274 3.0 8.0 0.00 0.00 0.00 63 1011.8
20260508055008 71 354 3.0 10.0 0.00 0.00 0.00 63 1011.8
20260508054510 71 280 5.0 11.0 0.00 0.00 0.00 63 1011.8
20260508054008 71 312 5.0 11.0 0.00 0.00 0.00 63 1011.9
20260508053508 71 298 4.0 12.0 0.00 0.00 0.00 64 1011.9
20260508053008 71 291 3.0 14.0 0.00 0.00 0.00 65 1011.8
20260508052507 72 331 5.0 14.0 0.00 0.00 0.00 65 1011.9
20260508052007 72 354 4.0 9.0 0.00 0.00 0.00 65 1011.8
20260508051511 72 326 4.0 9.0 0.00 0.00 0.00 64 1011.8
20260508051007 73 266 4.0 9.0 0.00 0.00 0.00 64 1011.8
20260508050507 73 340 4.0 9.0 0.00 0.00 0.00 64 1011.9
20260508050013 73 329 2.0 6.0 0.00 0.00 0.00 64 1011.9
20260508045506 73 339 3.0 8.0 0.00 0.00 0.00 64 1011.9
20260508045007 74 312 3.0 9.0 0.00 0.00 0.00 65 1011.9
20260508044506 74 354 4.0 9.0 0.00 0.00 0.00 65 1011.9
20260508044005 74 338 2.0 6.0 0.00 0.00 0.00 66 1011.8
20260508043508 74 316 3.0 6.0 0.00 0.00 0.00 65 1011.8
20260508043005 74 312 3.0 6.0 0.00 0.00 0.00 65 1011.8
20260508042505 75 320 3.0 8.0 0.00 0.00 0.00 64 1011.7
20260508042004 75 337 2.0 8.0 0.00 0.00 0.00 63 1011.7
20260508041505 75 306 3.0 8.0 0.00 0.00 0.00 63 1011.5
20260508041004 75 249 3.0 8.0 0.00 0.00 0.00 63 1011.5
20260508040504 76 308 3.0 9.0 0.00 0.00 0.00 62 1011.4
20260508040004 76 343 5.0 9.0 0.00 0.00 0.00 62 1011.4
20260508035503 76 314 4.0 8.0 0.00 0.00 0.00 62 1011.2
20260508035004 76 338 3.0 9.0 0.00 0.00 0.00 62 1011.2
20260508034506 76 312 3.0 10.0 0.00 0.00 0.00 61 1011.1
20260508034003 76 305 3.0 10.0 0.00 0.00 0.00 61 1011.1
20260508033502 77 328 3.0 6.0 0.00 0.00 0.00 60 1011.1
20260508033003 77 330 2.0 8.0 0.00 0.00 0.00 60 1011.1
20260508032502 77 76 3.0 9.0 0.00 0.00 0.00 59 1010.9
20260508032002 78 312 5.0 10.0 0.00 0.00 0.00 59 1010.8
20260508031607 78 341 3.0 10.0 0.00 0.00 0.00 59 1010.8
20260508031059 78 334 4.0 10.0 0.00 0.00 0.00 58 1010.9
20260508030559 78 323 4.0 10.0 0.00 0.00 0.00 58 1010.9
20260508030106 78 343 4.0 9.0 0.00 0.00 0.00 58 1010.8
20260508025559 79 335 3.0 9.0 0.00 0.00 0.00 57 1010.7
20260508025059 79 316 4.0 10.0 0.00 0.00 0.00 56 1010.7
20260508024559 80 347 4.0 10.0 0.00 0.00 0.00 56 1010.6
20260508024059 80 349 5.0 10.0 0.00 0.00 0.00 55 1010.7
20260508023558 80 335 4.0 10.0 0.00 0.00 0.00 55 1010.6
20260508023059 81 329 4.0 10.0 0.00 0.00 0.00 54 1010.5
20260508022558 81 343 3.0 10.0 0.00 0.00 0.00 54 1010.6
20260508022058 81 343 5.0 11.0 0.00 0.00 0.00 53 1010.5
20260508021605 82 18 5.0 11.0 0.00 0.00 0.00 53 1010.5
20260508021058 82 340 6.0 10.0 0.00 0.00 0.00 53 1010.4
20260508020557 82 328 3.0 12.0 0.00 0.00 0.00 52 1010.5
20260508020057 82 335 4.0 9.0 0.00 0.00 0.00 52 1010.5
20260508015557 82 316 5.0 11.0 0.00 0.00 0.00 51 1010.4
20260508015057 82 311 5.0 13.0 0.00 0.00 0.00 51 1010.5
20260508014557 83 337 6.0 13.0 0.00 0.00 0.00 50 1010.5
20260508014057 83 339 6.0 12.0 0.00 0.00 0.00 48 1010.5
20260508013557 83 340 4.0 13.0 0.00 0.00 0.00 48 1010.6
20260508013057 83 274 5.0 12.0 0.00 0.00 0.00 48 1010.6
20260508012557 83 324 5.0 14.0 0.00 0.00 0.00 49 1010.6
20260508012101 84 354 7.0 13.0 0.00 0.00 0.00 47 1010.5
20260508011606 84 346 4.0 12.0 0.00 0.00 0.00 49 1010.5
20260508011056 84 301 6.0 13.0 0.00 0.00 0.00 49 1010.5
20260508010556 84 340 7.0 13.0 0.00 0.00 0.00 49 1010.5
20260508010100 85 299 5.0 14.0 0.00 0.00 0.00 49 1010.5
20260508005600 85 354 8.0 14.0 0.00 0.00 0.00 48 1010.5
20260508005100 85 318 5.0 12.0 0.00 0.00 0.00 49 1010.4
20260508004556 85 303 6.0 12.0 0.00 0.00 0.00 48 1010.4
20260508004055 86 4 6.0 11.0 0.00 0.00 0.00 47 1010.5
20260508003555 85 347 4.0 13.0 0.00 0.00 0.00 48 1010.6
20260508003055 85 324 3.0 13.0 0.00 0.00 0.00 47 1010.6
20260508002554 86 359 5.0 10.0 0.00 0.00 0.00 47 1010.6
20260508002054 85 336 4.0 12.0 0.00 0.00 0.00 48 1010.6
20260508001553 86 264 6.0 12.0 0.00 0.00 0.00 47 1010.7
20260508001052 86 343 4.0 12.0 0.00 0.00 0.00 47 1010.7
20260508000552 86 341 3.0 12.0 0.00 0.00 0.00 47 1010.7
20260508000108 86 336 4.0 12.0 0.00 0.00 0.00 47 1010.7
20260507235553 86 50 4.0 12.0 0.00 0.00 0.00 46 1010.7
20260507235051 86 326 2.0 12.0 0.00 0.00 0.00 47 1010.8
20260507234551 86 288 6.0 14.0 0.00 0.00 0.00 46 1010.7
20260507234055 86 305 5.0 14.0 0.00 0.00 0.00 46 1010.8
20260507233549 86 40 5.0 13.0 0.00 0.00 0.00 46 1010.7
20260507233049 86 269 5.0 10.0 0.00 0.00 0.00 46 1010.8
20260507232549 86 16 5.0 11.0 0.00 0.00 0.00 46 1010.8
20260507232048 86 289 5.0 11.0 0.00 0.00 0.00 46 1010.9
20260507231553 86 281 4.0 11.0 0.00 0.00 0.00 45 1011.0
20260507231049 86 322 4.0 10.0 0.00 0.00 0.00 45 1011.1
20260507230549 86 25 5.0 12.0 0.00 0.00 0.00 44 1011.1
20260507230045 86 4 2.0 10.0 0.00 0.00 0.00 46 1011.1
20260507225545 86 320 4.0 13.0 0.00 0.00 0.00 46 1011.2
20260507225044 85 280 6.0 13.0 0.00 0.00 0.00 46 1011.3
20260507224543 85 330 6.0 12.0 0.00 0.00 0.00 46 1011.4
20260507224043 85 303 4.0 12.0 0.00 0.00 0.00 46 1011.4
20260507223544 85 322 6.0 11.0 0.00 0.00 0.00 46 1011.5
20260507223041 86 287 4.0 11.0 0.00 0.00 0.00 45 1011.6
20260507222541 85 273 5.0 11.0 0.00 0.00 0.00 45 1011.7
20260507222038 85 287 2.0 10.0 0.00 0.00 0.00 46 1011.7
20260507221539 85 283 5.0 12.0 0.00 0.00 0.00 46 1011.8
20260507221037 84 343 4.0 12.0 0.00 0.00 0.00 47 1011.8
20260507220539 85 248 5.0 12.0 0.00 0.00 0.00 46 1011.9
20260507220036 84 306 5.0 11.0 0.00 0.00 0.00 47 1012.0
20260507215536 84 251 5.0 11.0 0.00 0.00 0.00 48 1012.1
20260507215035 83 312 6.0 11.0 0.00 0.00 0.00 48 1012.1
20260507214534 83 261 6.0 11.0 0.00 0.00 0.00 47 1012.2
20260507214034 84 328 3.0 13.0 0.00 0.00 0.00 47 1012.3
20260507213534 85 322 5.0 13.0 0.00 0.00 0.00 45 1012.4
20260507213039 84 227 4.0 12.0 0.00 0.00 0.00 47 1012.3
20260507212533 84 10 5.0 12.0 0.00 0.00 0.00 45 1012.4
20260507212035 85 273 2.0 9.0 0.00 0.00 0.00 45 1012.5
20260507211542 84 297 4.0 9.0 0.00 0.00 0.00 46 1012.6
20260507211029 84 8 3.0 9.0 0.00 0.00 0.00 45 1012.6
20260507210528 83 31 4.0 9.0 0.00 0.00 0.00 46 1012.7
20260507210028 83 320 3.0 11.0 0.00 0.00 0.00 47 1012.8
20260507205529 83 326 4.0 6.0 0.00 0.00 0.00 47 1012.9
20260507205027 82 359 2.0 9.0 0.00 0.00 0.00 48 1012.9
20260507204525 81 248 4.0 12.0 0.00 0.00 0.00 47 1013.0
20260507204025 82 264 3.0 12.0 0.00 0.00 0.00 47 1013.1
20260507203525 82 4 3.0 10.0 0.00 0.00 0.00 48 1013.1
20260507203024 82 318 4.0 9.0 0.00 0.00 0.00 47 1013.1
20260507202523 83 269 4.0 9.0 0.00 0.00 0.00 47 1013.2
20260507202022 82 252 2.0 8.0 0.00 0.00 0.00 48 1013.2
20260507201522 81 10 2.0 8.0 0.00 0.00 0.00 51 1013.3
20260507201020 80 328 3.0 10.0 0.00 0.00 0.00 50 1013.3
20260507200519 81 327 5.0 9.0 0.00 0.00 0.00 50 1013.4
20260507200019 81 345 3.0 8.0 0.00 0.00 0.00 50 1013.4
20260507195517 80 293 2.0 8.0 0.00 0.00 0.00 50 1013.5
20260507195019 80 264 4.0 9.0 0.00 0.00 0.00 50 1013.5
20260507194517 80 268 3.0 9.0 0.00 0.00 0.00 49 1013.6
20260507194015 80 218 1.0 8.0 0.00 0.00 0.00 51 1013.6
20260507193515 79 327 2.0 10.0 0.00 0.00 0.00 51 1013.7
20260507193019 79 275 6.0 10.0 0.00 0.00 0.00 51 1013.8
20260507192513 80 295 3.0 8.0 0.00 0.00 0.00 51 1013.8
20260507192013 80 229 3.0 8.0 0.00 0.00 0.00 50 1013.8
20260507191512 80 89 3.0 8.0 0.00 0.00 0.00 52 1013.9
20260507191010 79 260 2.0 7.0 0.00 0.00 0.00 53 1014.1
20260507190513 78 354 3.0 10.0 0.00 0.00 0.00 53 1014.1
20260507190012 78 312 5.0 10.0 0.00 0.00 0.00 52 1014.2
20260507185509 78 309 1.0 6.0 0.00 0.00 0.00 53 1014.3
20260507185008 78 315 3.0 6.0 0.00 0.00 0.00 52 1014.4
20260507184507 79 11 3.0 6.0 0.00 0.00 0.00 50 1014.5
20260507184007 79 316 0.0 4.0 0.00 0.00 0.00 51 1014.5
20260507183505 78 337 1.0 6.0 0.00 0.00 0.00 52 1014.5
20260507183008 77 37 2.0 8.0 0.00 0.00 0.00 54 1014.6
20260507182502 77 36 3.0 8.0 0.00 0.00 0.00 54 1014.6
20260507182001 76 314 0.0 8.0 0.00 0.00 0.00 57 1014.6
20260507181559 75 295 3.0 8.0 0.00 0.00 0.00 57 1014.6
20260507181059 75 337 2.0 9.0 0.00 0.00 0.00 57 1014.6
20260507180559 74 238 2.0 9.0 0.00 0.00 0.00 58 1014.6
20260507180105 75 277 3.0 7.0 0.00 0.00 0.00 58 1014.7
20260507175555 75 284 4.0 9.0 0.00 0.00 0.00 58 1014.7
20260507175054 75 233 4.0 9.0 0.00 0.00 0.00 58 1014.7
20260507174622 75 10 1.0 6.0 0.00 0.00 0.00 60 1014.7
20260507174051 74 287 3.0 6.0 0.00 0.00 0.00 61 1014.8
20260507173551 73 284 2.0 8.0 0.00 0.00 0.00 61 1014.8
20260507173049 73 298 3.0 8.0 0.00 0.00 0.00 61 1014.8
20260507172550 73 324 1.0 7.0 0.00 0.00 0.00 63 1014.7
20260507172047 73 235 2.0 8.0 0.00 0.00 0.00 63 1014.9
20260507171601 73 15 2.0 5.0 0.00 0.00 0.00 63 1014.9
20260507171043 71 102 2.0 8.0 0.00 0.00 0.00 66 1014.9
20260507170542 71 340 4.0 8.0 0.00 0.00 0.00 66 1014.9
20260507170041 71 326 3.0 8.0 0.00 0.00 0.00 67 1014.9
20260507165541 71 334 2.0 5.0 0.00 0.00 0.00 68 1015.0
20260507165039 71 285 2.0 7.0 0.00 0.00 0.00 68 1015.1
20260507164538 69 343 3.0 7.0 0.00 0.00 0.00 70 1015.1
20260507164035 69 349 1.0 8.0 0.00 0.00 0.00 72 1015.1
20260507163534 69 259 5.0 8.0 0.00 0.00 0.00 71 1015.2
20260507163032 68 321 3.0 6.0 0.00 0.00 0.00 73 1015.2
20260507162531 68 324 2.0 9.0 0.00 0.00 0.00 74 1015.2
20260507162031 67 292 2.0 9.0 0.00 0.00 0.00 75 1015.2
20260507161530 67 320 2.0 8.0 0.00 0.00 0.00 76 1015.2
20260507161027 66 322 3.0 8.0 0.00 0.00 0.00 77 1015.2
20260507160527 66 241 3.0 8.0 0.00 0.00 0.00 77 1015.3
20260507160030 65 319 2.0 8.0 0.00 0.00 0.00 78 1015.3
20260507155526 65 333 3.0 8.0 0.00 0.00 0.00 79 1015.3
20260507155025 65 273 3.0 7.0 0.00 0.00 0.00 79 1015.3
20260507154524 64 327 3.0 7.0 0.00 0.00 0.00 80 1015.3
20260507154022 64 305 3.0 7.0 0.00 0.00 0.00 80 1015.3
20260507153521 64 264 4.0 8.0 0.00 0.00 0.00 81 1015.3
20260507153025 63 290 3.0 8.0 0.00 0.00 0.00 82 1015.2
20260507152519 63 332 2.0 5.0 0.00 0.00 0.00 83 1015.3
20260507152020 62 264 3.0 5.0 0.00 0.00 0.00 84 1015.3
20260507151517 62 325 3.0 7.0 0.00 0.00 0.00 84 1015.3
20260507151015 62 298 3.0 7.0 0.00 0.00 0.00 85 1015.3
20260507150515 61 327 3.0 5.0 0.00 0.00 0.00 85 1015.2
20260507150017 61 335 2.0 5.0 0.00 0.00 0.00 86 1015.3
20260507145514 61 306 2.0 5.0 0.00 0.00 0.00 86 1015.4
20260507145016 60 314 1.0 4.0 0.00 0.00 0.00 87 1015.4
20260507144510 60 343 1.0 3.0 0.00 0.00 0.00 87 1015.4
20260507144009 60 305 1.0 6.0 0.00 0.00 0.00 87 1015.4
20260507143508 59 321 4.0 6.0 0.00 0.00 0.00 87 1015.4
20260507143007 59 348 3.0 5.0 0.00 0.00 0.00 87 1015.3
20260507142508 59 335 2.0 5.0 0.00 0.00 0.00 88 1015.3
20260507142003 59 290 1.0 5.0 0.00 0.00 0.00 88 1015.3
20260507141502 59 310 2.0 5.0 0.00 0.00 0.00 88 1015.2
20260507141100 59 335 2.0 5.0 0.00 0.00 0.00 88 1015.2
20260507140600 58 354 3.0 5.0 0.00 0.00 0.00 88 1015.2
20260507140113 58 305 1.0 3.0 0.00 0.00 0.00 88 1015.1
20260507135556 58 297 0.0 3.0 0.00 0.00 0.00 88 1015.0
20260507135056 58 295 1.0 3.0 0.00 0.00 0.00 88 1015.0
20260507134600 58 343 1.0 3.0 0.00 0.00 0.00 88 1015.0
20260507134054 58 288 0.0 2.0 0.00 0.00 0.00 88 1014.9
20260507133553 58 267 0.0 2.0 0.00 0.00 0.00 88 1014.8
20260507133059 58 283 0.0 1.0 0.00 0.00 0.00 88 1014.8
20260507132550 58 293 0.0 0.0 0.00 0.00 0.00 88 1014.7
20260507132050 58 291 0.0 3.0 0.00 0.00 0.00 88 1014.7
20260507131614 58 290 1.0 3.0 0.00 0.00 0.00 88 1014.6
20260507131049 58 320 0.0 2.0 0.00 0.00 0.00 88 1014.6
20260507130547 58 294 0.0 3.0 0.00 0.00 0.00 87 1014.6
20260507130047 58 294 0.0 3.0 0.00 0.00 0.00 87 1014.5
20260507125547 58 295 0.0 2.0 0.00 0.00 0.00 87 1014.6
20260507125046 58 288 0.0 3.0 0.00 0.00 0.00 87 1014.6
20260507124553 58 287 1.0 3.0 0.00 0.00 0.00 87 1014.6
20260507124046 58 288 1.0 3.0 0.00 0.00 0.00 87 1014.5
20260507123546 58 289 0.0 1.0 0.00 0.00 0.00 87 1014.5
20260507123047 59 289 0.0 0.0 0.00 0.00 0.00 87 1014.5
20260507122545 59 294 0.0 0.0 0.00 0.00 0.00 86 1014.5
20260507122049 59 295 0.0 0.0 0.00 0.00 0.00 86 1014.5
20260507121545 59 294 0.0 0.0 0.00 0.00 0.00 86 1014.5
20260507121044 59 294 0.0 0.0 0.00 0.00 0.00 86 1014.5
20260507120543 59 295 0.0 0.0 0.00 0.00 0.00 86 1014.5
20260507120044 59 294 0.0 0.0 0.00 0.00 0.00 86 1014.5
20260507115542 59 295 0.0 0.0 0.00 0.00 0.00 86 1014.5
20260507115041 59 289 0.0 0.0 0.00 0.00 0.00 86 1014.4
20260507114541 59 292 0.0 0.0 0.00 0.00 0.00 85 1014.4
20260507114046 59 293 0.0 0.0 0.00 0.00 0.00 85 1014.5
20260507113540 59 293 0.0 1.0 0.00 0.00 0.00 85 1014.5
20260507113103 60 283 0.0 3.0 0.00 0.00 0.00 85 1014.6
20260507112543 60 272 1.0 3.0 0.00 0.00 0.00 85 1014.6
20260507112039 60 314 0.0 2.0 0.00 0.00 0.00 85 1014.6
20260507111539 60 314 1.0 2.0 0.00 0.00 0.00 85 1014.6